This demonstration page uses our WeatherBlox Daily Observations layout. Learn more.

Hourly Observations for October 25, 2020

Temp ( °F °C ) Dew Point ( °F °C ) Humidity (%) Winds ( mph kmh ) Pressure ( in mb ) Visibility ( mi km ) Precip ( " mm )
12:15 am 00:15 Cloudy 31 -0.5 26 -3.2 82 82 ENE 10 17 30.24 1024 10 16.0934 0 0
12:35 am 00:35 Cloudy 31 -0.7 26 -3.4 82 82 NE 15 24 30.23 1024 10 16.0934 0 0
12:55 am 00:55 Cloudy 31 -0.7 26 -3.2 83 83 NE 14 22 30.23 1024 10 16.0934 0 0
1:15 am 01:15 Cloudy 31 -0.8 26 -3.3 83 83 NE 13 20 30.25 1024 10 16.0934 0 0
1:35 am 01:35 Cloudy 31 -0.7 26 -3.1 84 84 NE 10 17 30.26 1025 10 16.0934 0 0
1:55 am 01:55 Cloudy 31 -0.8 27 -3 85 85 NE 10 17 30.26 1025 10 16.0934 0 0
2:15 am 02:15 Cloudy 31 -0.7 27 -3 85 85 NE 13 20 30.26 1025 10 16.0934 0 0
2:35 am 02:35 Cloudy 31 -0.7 27 -3 85 85 NE 14 22 30.26 1025 10 16.0934 0 0
2:55 am 02:55 Cloudy 29 -1.4 26 -3.3 87 87 NE 12 19 30.27 1025 10 16.0934 0 0
3:15 am 03:15 Cloudy 28 -2 24 -4.4 84 84 NE 13 20 30.27 1025 10 16.0934 0 0
3:35 am 03:35 Cloudy 28 -2 24 -4.7 82 82 NE 13 20 30.28 1026 10 16.0934 0 0
3:55 am 03:55 Cloudy 28 -2.1 23 -4.9 81 81 NNE 12 19 30.3 1026 10 16.0934 0 0
4:15 am 04:15 Cloudy 28 -2.1 23 -5 81 81 NE 7 11 30.31 1026 10 16.0934 0 0
4:35 am 04:35 Cloudy 28 -2.1 23 -5 81 81 NNE 12 19 30.31 1026 10 16.0934 0 0
4:55 am 04:55 Cloudy 28 -2.2 23 -5 81 81 NNE 9 15 30.31 1026 10 16.0934 0 0
5:15 am 05:15 Cloudy 28 -2.2 24 -4.7 83 83 NNE 7 11 30.31 1026 10 16.0934 0 0
5:35 am 05:35 Cloudy 28 -2.3 23 -4.9 83 83 NNE 8 13 30.32 1027 10 16.0934 0 0
5:55 am 05:55 Cloudy 28 -2.5 24 -4.5 86 86 NNE 9 15 30.32 1027 10 16.0934 0 0
6:15 am 06:15 Cloudy 28 -2.5 24 -4.2 88 88 NNE 10 17 30.32 1027 10 16.0934 0 0
6:35 am 06:35 Cloudy 27 -2.8 25 -4.1 91 91 NNE 12 19 30.32 1027 7 11.26538 0 0
6:55 am 06:55 Cloudy 27 -2.8 25 -4 92 92 NNE 10 17 30.33 1027 7 11.26538 0 0
7:15 am 07:15 Cloudy 27 -2.8 25 -4 92 92 N 13 20 30.34 1028 10 16.0934 0 0
7:35 am 07:35 Cloudy 27 -3 24 -4.5 90 90 N 14 22 30.33 1027 10 16.0934 0 0
7:55 am 07:55 Cloudy 27 -3 24 -4.5 90 90 NNE 15 24 30.34 1028 10 16.0934 0 0
8:15 am 08:15 Cloudy 27 -3 24 -4.6 89 89 N 15 24 30.34 1028 10 16.0934 0 0
8:35 am 08:35 Cloudy 27 -3 24 -4.6 89 89 N 15 24 30.35 1028 10 16.0934 0 0
8:55 am 08:55 Cloudy 26 -3.1 23 -4.8 88 88 NNE 17 28 30.38 1029 10 16.0934 0 0
9:15 am 09:15 Cloudy 26 -3.2 23 -5 88 88 N 15 24 30.4 1029 10 16.0934 0 0
9:35 am 09:35 Cloudy 26 -3.2 23 -5 88 88 N 17 28 30.4 1029 10 16.0934 0 0
9:55 am 09:55 Cloudy 26 -3.2 23 -4.9 88 88 NNE 17 28 30.4 1029 7 11.26538 0 0
10:15 am 10:15 Cloudy 27 -3 24 -4.7 88 88 NNE 18 30 30.39 1029 10 16.0934 0 0
10:35 am 10:35 Cloudy 26 -3.1 22 -5.4 84 84 N 16 26 30.4 1029 10 16.0934 0 0
10:55 am 10:55 Cloudy 27 -3 22 -5.6 82 82 N 22 35 30.41 1030 10 16.0934 0 0
11:15 am 11:15 Cloudy 27 -3 22 -5.8 81 81 N 20 31 30.42 1030 10 16.0934 0 0
11:35 am 11:35 Cloudy 27 -2.8 21 -5.9 79 79 N 21 33 30.41 1030 10 16.0934 0 0
11:55 am 11:55 Cloudy 28 -2.5 21 -6.2 76 76 N 22 35 30.41 1030 10 16.0934 0 0
12:15 pm 12:15 Cloudy 28 -2 20 -6.5 72 72 NNE 23 37 30.41 1030 10 16.0934 0 0
12:35 pm 12:35 Cloudy 28 -2 20 -6.8 70 70 N 21 33 30.4 1029 10 16.0934 0 0
12:55 pm 12:55 Cloudy 28 -2 19 -7 69 69 NNE 21 33 30.41 1030 10 16.0934 0 0
1:15 pm 13:15 Cloudy 28 -2.2 19 -7.2 69 69 NNE 22 35 30.41 1030 10 16.0934 0 0
1:35 pm 13:35 Cloudy 28 -2 19 -7.1 68 68 NNE 20 31 30.4 1029 10 16.0934 0 0
1:55 pm 13:55 Cloudy 29 -1.7 19 -7.3 66 66 NNE 20 31 30.38 1029 10 16.0934 0 0
2:15 pm 14:15 Cloudy 29 -1.9 18 -7.6 65 65 NNE 20 31 30.37 1029 10 16.0934 0 0
2:35 pm 14:35 Cloudy 29 -1.6 18 -7.6 64 64 N 21 33 30.36 1028 10 16.0934 0 0
2:55 pm 14:55 Cloudy 29 -1.8 18 -7.7 64 64 NNE 22 35 30.36 1028 10 16.0934 0 0
3:15 pm 15:15 Cloudy 29 -1.6 18 -8 62 62 N 20 31 30.36 1028 10 16.0934 0 0
3:35 pm 15:35 Cloudy 28 -2 17 -8.2 63 63 N 18 30 30.37 1028 10 16.0934 0 0
3:55 pm 15:55 Windy with Snow Likely 28 -2.3 18 -7.7 67 67 N 20 31 30.38 1029 10 16.0934 0 0
4:15 pm 16:15 Cloudy 27 -2.6 18 -7.8 68 68 N 18 30 30.39 1029 10 16.0934 0 0
4:35 pm 16:35 Cloudy 27 -3 18 -8 69 69 NNE 22 35 30.39 1029 10 16.0934 0 0
4:55 pm 16:55 Cloudy 27 -2.8 17 -8.1 67 67 N 18 30 30.4 1030 10 16.0934 0 0
5:15 pm 17:15 Cloudy 27 -3 18 -8 69 69 N 20 31 30.41 1030 10 16.0934 0 0
5:35 pm 17:35 Cloudy 26 -3.3 18 -7.7 72 72 N 21 33 30.42 1030 10 16.0934 0 0
5:55 pm 17:55 Cloudy 26 -3.5 18 -7.7 73 73 N 18 30 30.42 1030 10 16.0934 0 0
6:15 pm 18:15 Cloudy 25 -3.8 18 -7.7 75 75 N 20 31 30.43 1031 10 16.0934 0 0
6:35 pm 18:35 Cloudy 25 -3.8 18 -7.6 75 75 N 22 35 30.44 1031 10 16.0934 0 0
6:55 pm 18:55 Cloudy 25 -4.1 17 -8.1 74 74 N 21 33 30.46 1031 10 16.0934 0 0
7:15 pm 19:15 Cloudy 24 -4.2 18 -8 75 75 N 18 30 30.46 1031 10 16.0934 0 0
7:35 pm 19:35 Cloudy 24 -4.3 18 -7.8 77 77 N 21 33 30.47 1032 10 16.0934 0 0
7:55 pm 19:55 Cloudy 24 -4.5 18 -7.7 79 79 N 17 28 30.48 1032 10 16.0934 0 0
8:15 pm 20:15 Cloudy 24 -4.5 18 -7.7 79 79 N 21 33 30.49 1033 10 16.0934 0 0
8:35 pm 20:35 Cloudy 24 -4.6 18 -7.6 80 80 N 17 28 30.49 1033 10 16.0934 0 0
8:55 pm 20:55 Cloudy 24 -4.7 19 -7.5 81 81 NNE 16 26 30.51 1033 10 16.0934 0 0
9:15 pm 21:15 Cloudy 23 -4.8 18 -7.8 80 80 NNE 21 33 30.49 1033 10 16.0934 0 0
9:35 pm 21:35 Cloudy 23 -4.9 18 -7.9 80 80 NNE 22 35 30.49 1033 10 16.0934 0 0
9:55 pm 21:55 Cloudy with Light Snow 23 -5.1 19 -7.5 83 83 N 17 28 30.51 1033 3 4.82802 0 0
10:15 pm 22:15 Cloudy with Light Snow 22 -5.5 18 -8 83 83 NNE 17 28 30.51 1033 4 6.43736 0 0
10:35 pm 22:35 Cloudy with Light Snow 22 -5.6 19 -7.5 87 87 N 17 28 30.53 1034 7 11.26538 0 0
10:55 pm 22:55 Windy with Snow Likely 21 -6 17 -8.2 85 85 NNE 22 35 30.55 1034 7 11.26538 0 0
11:15 pm 23:15 Cloudy with Light Snow 21 -6.1 17 -8.2 85 85 N 17 28 30.56 1035 2.5 4.02335 0 0
11:35 pm 23:35 Cloudy with Light Snow 21 -6.2 18 -8 87 87 NNE 12 19 30.59 1036 2.5 4.02335 0 0
11:55 pm 23:55 Cloudy with Light Snow 21 -6.2 18 -7.8 89 89 N 12 19 30.58 1035 4 6.43736 0 0

Powered by AerisWeather